| time (UTC) | temp C | wind direction | speed KPH | gust KPH | rain 1hr cm | rain 24hr cm | rain mn cm | humidity % | barometer mb |
| 20260506034121 | 15 | 230 | 6.4 | 12.9 | 0.00 | 0.00 | 0.00 | 93 | 1009.2 |
| 20260506033121 | 15 | 260 | 6.4 | 12.9 | 0.00 | 0.00 | 0.00 | 93 | 1009.1 |
| 20260506032124 | 15 | 278 | 6.4 | 11.3 | 0.00 | 0.00 | 0.00 | 92 | 1009.1 |
| 20260506031143 | 15 | 206 | 6.4 | 12.9 | 0.00 | 0.00 | 0.00 | 91 | 1009.2 |
| 20260506030121 | 16 | 268 | 6.4 | 12.9 | 0.00 | 0.00 | 0.00 | 90 | 1009.2 |
| 20260506025121 | 16 | 196 | 6.4 | 14.5 | 0.00 | 0.00 | 0.00 | 89 | 1009.2 |
| 20260506024122 | 16 | 226 | 6.4 | 12.9 | 0.00 | 0.00 | 0.00 | 88 | 1009.2 |
| 20260506023143 | 16 | 233 | 6.4 | 11.3 | 0.00 | 0.00 | 0.00 | 87 | 1009.2 |
| 20260506022122 | 16 | 239 | 4.8 | 11.3 | 0.00 | 0.00 | 0.00 | 86 | 1009.1 |
| 20260506021143 | 16 | 215 | 6.4 | 9.7 | 0.00 | 0.00 | 0.00 | 85 | 1009.2 |
| 20260506020123 | 16 | 216 | 6.4 | 11.3 | 0.00 | 0.00 | 0.00 | 84 | 1009.2 |
| 20260506015123 | 17 | 220 | 8.0 | 17.7 | 0.00 | 0.00 | 0.00 | 83 | 1009.1 |
| 20260506014123 | 17 | 251 | 6.4 | 14.5 | 0.00 | 0.00 | 0.00 | 81 | 1008.9 |
| 20260506013123 | 17 | 214 | 6.4 | 16.1 | 0.00 | 0.00 | 0.00 | 80 | 1008.9 |
| 20260506012122 | 17 | 222 | 6.4 | 9.7 | 0.00 | 0.00 | 0.00 | 80 | 1008.7 |
| 20260506011122 | 17 | 207 | 6.4 | 11.3 | 0.00 | 0.00 | 0.00 | 80 | 1008.6 |
| 20260506010121 | 17 | 271 | 6.4 | 12.9 | 0.00 | 0.00 | 0.00 | 80 | 1008.6 |
| 20260506005122 | 17 | 224 | 8.0 | 14.5 | 0.00 | 0.00 | 0.00 | 79 | 1008.5 |
| 20260506004124 | 18 | 236 | 8.0 | 14.5 | 0.00 | 0.00 | 0.00 | 78 | 1008.2 |
| 20260506003124 | 18 | 236 | 6.4 | 11.3 | 0.00 | 0.00 | 0.00 | 77 | 1008.2 |
| 20260506002121 | 18 | 213 | 6.4 | 16.1 | 0.00 | 0.00 | 0.00 | 77 | 1008.1 |
| 20260506001121 | 18 | 231 | 9.7 | 14.5 | 0.00 | 0.00 | 0.00 | 77 | 1007.9 |
| 20260506000122 | 18 | 297 | 8.0 | 19.3 | 0.00 | 0.00 | 0.00 | 77 | 1007.9 |
| 20260505235143 | 18 | 268 | 9.7 | 17.7 | 0.00 | 0.00 | 0.00 | 77 | 1007.7 |
| 20260505234209 | 18 | 238 | 9.7 | 24.1 | 0.00 | 0.00 | 0.00 | 76 | 1007.5 |
| 20260505234142 | 18 | 236 | 9.7 | 24.1 | 0.00 | 0.00 | 0.00 | 76 | 1007.5 |
| 20260505233125 | 18 | 250 | 8.0 | 12.9 | 0.00 | 0.00 | 0.00 | 76 | 1007.2 |
| 20260505232125 | 18 | 244 | 8.0 | 16.1 | 0.00 | 0.00 | 0.00 | 76 | 1007.2 |
| 20260505231125 | 18 | 240 | 8.0 | 16.1 | 0.00 | 0.00 | 0.00 | 76 | 1007.2 |
| 20260505230121 | 18 | 225 | 9.7 | 27.4 | 0.00 | 0.00 | 0.00 | 76 | 1007.0 |
| 20260505225142 | 18 | 256 | 8.0 | 16.1 | 0.00 | 0.00 | 0.00 | 75 | 1007.0 |
| 20260505224124 | 19 | 264 | 8.0 | 16.1 | 0.00 | 0.00 | 0.00 | 74 | 1007.1 |
| 20260505223143 | 19 | 230 | 9.7 | 17.7 | 0.00 | 0.00 | 0.00 | 74 | 1007.0 |
| 20260505222144 | 20 | 233 | 9.7 | 12.9 | 0.00 | 0.00 | 0.00 | 73 | 1006.8 |
| 20260505221125 | 20 | 252 | 11.3 | 17.7 | 0.00 | 0.00 | 0.00 | 73 | 1006.9 |
| 20260505220126 | 20 | 237 | 11.3 | 17.7 | 0.00 | 0.00 | 0.00 | 71 | 1006.8 |
| 20260505215122 | 20 | 241 | 8.0 | 14.5 | 0.00 | 0.00 | 0.00 | 70 | 1006.8 |
| 20260505214122 | 21 | 267 | 9.7 | 17.7 | 0.00 | 0.00 | 0.00 | 71 | 1006.8 |
| 20260505213123 | 21 | 233 | 11.3 | 19.3 | 0.00 | 0.00 | 0.00 | 70 | 1006.8 |
| 20260505212121 | 22 | 263 | 12.9 | 24.1 | 0.00 | 0.00 | 0.00 | 65 | 1006.6 |
| 20260505211142 | 22 | 234 | 8.0 | 14.5 | 0.00 | 0.00 | 0.00 | 64 | 1006.5 |
| 20260505210122 | 22 | 249 | 11.3 | 16.1 | 0.00 | 0.00 | 0.00 | 65 | 1006.5 |
| 20260505205121 | 23 | 245 | 8.0 | 16.1 | 0.00 | 0.00 | 0.00 | 63 | 1006.6 |
| 20260505204121 | 22 | 253 | 11.3 | 20.9 | 0.00 | 0.00 | 0.00 | 64 | 1006.7 |
| 20260505203121 | 23 | 247 | 8.0 | 14.5 | 0.00 | 0.00 | 0.00 | 62 | 1006.6 |
| 20260505202142 | 23 | 240 | 8.0 | 14.5 | 0.00 | 0.00 | 0.00 | 63 | 1006.8 |
| 20260505201121 | 22 | 251 | 9.7 | 17.7 | 0.00 | 0.00 | 0.00 | 64 | 1006.8 |
| 20260505200122 | 23 | 258 | 11.3 | 17.7 | 0.00 | 0.00 | 0.00 | 63 | 1006.8 |
| 20260505195143 | 24 | 257 | 8.0 | 14.5 | 0.00 | 0.00 | 0.00 | 61 | 1007.0 |
| 20260505194121 | 24 | 264 | 9.7 | 19.3 | 0.00 | 0.00 | 0.00 | 61 | 1007.2 |
| 20260505193121 | 24 | 24 | 9.7 | 19.3 | 0.00 | 0.00 | 0.00 | 61 | 1007.2 |
| 20260505192123 | 24 | 245 | 11.3 | 19.3 | 0.00 | 0.00 | 0.00 | 61 | 1007.6 |
| 20260505191142 | 24 | 267 | 8.0 | 16.1 | 0.00 | 0.00 | 0.00 | 61 | 1008.0 |
| 20260505190143 | 24 | 261 | 9.7 | 14.5 | 0.00 | 0.00 | 0.00 | 61 | 1008.0 |
| 20260505185123 | 24 | 205 | 9.7 | 17.7 | 0.00 | 0.00 | 0.00 | 62 | 1008.0 |
| 20260505184143 | 25 | 196 | 4.8 | 9.7 | 0.00 | 0.00 | 0.00 | 60 | 1008.2 |
| 20260505183121 | 24 | 262 | 6.4 | 11.3 | 0.00 | 0.00 | 0.00 | 62 | 1008.2 |
| 20260505182124 | 23 | 217 | 6.4 | 12.9 | 0.00 | 0.00 | 0.00 | 64 | 1008.4 |
| 20260505181122 | 23 | 183 | 8.0 | 14.5 | 0.00 | 0.00 | 0.00 | 65 | 1008.5 |
| 20260505180143 | 23 | 278 | 8.0 | 17.7 | 0.00 | 0.00 | 0.00 | 63 | 1008.4 |
| 20260505175122 | 23 | 241 | 8.0 | 11.3 | 0.00 | 0.00 | 0.00 | 64 | 1008.4 |
| 20260505174122 | 23 | 262 | 8.0 | 19.3 | 0.00 | 0.00 | 0.00 | 64 | 1008.7 |
| 20260505173123 | 24 | 256 | 6.4 | 14.5 | 0.00 | 0.00 | 0.00 | 63 | 1008.6 |
| 20260505172121 | 24 | 261 | 6.4 | 11.3 | 0.00 | 0.00 | 0.00 | 63 | 1008.6 |
| 20260505171122 | 24 | 227 | 6.4 | 12.9 | 0.00 | 0.00 | 0.00 | 64 | 1008.8 |
| 20260505170144 | 25 | 257 | 8.0 | 12.9 | 0.00 | 0.00 | 0.00 | 60 | 1008.8 |
| 20260505165143 | 25 | 215 | 6.4 | 14.5 | 0.00 | 0.00 | 0.00 | 60 | 1008.7 |
| 20260505164144 | 26 | 211 | 4.8 | 9.7 | 0.00 | 0.00 | 0.00 | 60 | 1008.8 |
| 20260505163125 | 25 | 202 | 4.8 | 9.7 | 0.00 | 0.00 | 0.00 | 60 | 1009.0 |
| 20260505162121 | 25 | 210 | 6.4 | 8.0 | 0.00 | 0.00 | 0.00 | 62 | 1009.1 |
| 20260505161121 | 25 | 147 | 6.4 | 9.7 | 0.00 | 0.00 | 0.00 | 62 | 1009.2 |
| 20260505160143 | 24 | 118 | 4.8 | 8.0 | 0.00 | 0.00 | 0.00 | 64 | 1009.2 |
| 20260505153122 | 23 | 205 | 4.8 | 8.0 | 0.00 | 0.00 | 0.00 | 66 | 1009.6 |
| 20260505152125 | 23 | 105 | 6.4 | 11.3 | 0.00 | 0.00 | 0.00 | 67 | 1009.6 |
| 20260505151121 | 23 | 194 | 4.8 | 9.7 | 0.00 | 0.00 | 0.00 | 66 | 1009.8 |
| 20260505150121 | 23 | 260 | 6.4 | 11.3 | 0.00 | 0.00 | 0.00 | 64 | 1009.8 |
| 20260505140122 | 21 | 251 | 6.4 | 11.3 | 0.00 | 0.00 | 0.00 | 68 | 1009.7 |
| 20260505130121 | 20 | 268 | 6.4 | 12.9 | 0.00 | 0.00 | 0.00 | 73 | 1009.5 |
| 20260505124121 | 19 | 214 | 4.8 | 9.7 | 0.00 | 0.00 | 0.00 | 76 | 1009.4 |
| 20260505123122 | 18 | 246 | 4.8 | 8.0 | 0.00 | 0.00 | 0.00 | 79 | 1009.2 |
| 20260505122121 | 17 | 235 | 3.2 | 6.4 | 0.00 | 0.00 | 0.00 | 83 | 1009.4 |
| 20260505121122 | 16 | 249 | 3.2 | 4.8 | 0.00 | 0.00 | 0.00 | 88 | 1009.4 |
| 20260505120142 | 16 | 197 | 1.6 | 3.2 | 0.00 | 0.00 | 0.00 | 88 | 1009.4 |
| 20260505115121 | 15 | 140 | 1.6 | 3.2 | 0.00 | 0.00 | 0.00 | 90 | 1009.7 |
| 20260505114121 | 15 | 169 | 1.6 | 3.2 | 0.00 | 0.00 | 0.00 | 92 | 1009.7 |
| 20260505113144 | 15 | 161 | 0.0 | 3.2 | 0.00 | 0.00 | 0.00 | 94 | 1009.5 |
| 20260505112142 | 14 | 136 | 0.0 | 3.2 | 0.00 | 0.00 | 0.00 | 95 | 1009.6 |
| 20260505111121 | 14 | 248 | 0.0 | 0.0 | 0.00 | 0.00 | 0.00 | 96 | 1009.6 |
| 20260505110122 | 12 | 173 | 1.6 | 4.8 | 0.00 | 0.00 | 0.00 | 99 | 1009.6 |
| 20260505102123 | 10 | 225 | 0.0 | 3.2 | 0.00 | 0.00 | 0.00 | 99 | 1009.1 |
| 20260505101122 | 10 | 166 | 0.0 | 3.2 | 0.00 | 0.00 | 0.00 | 99 | 1009.0 |
| 20260505100122 | 10 | 224 | 0.0 | 3.2 | 0.00 | 0.00 | 0.00 | 99 | 1009.0 |
| 20260505095122 | 10 | 108 | 0.0 | 3.2 | 0.00 | 0.00 | 0.00 | 99 | 1008.6 |
| 20260505094124 | 10 | 113 | 0.0 | 0.0 | 0.00 | 0.00 | 0.00 | 99 | 1008.7 |
| 20260505093123 | 10 | 158 | 0.0 | 0.0 | 0.00 | 0.00 | 0.00 | 99 | 1008.8 |
| 20260505092121 | 10 | 161 | 0.0 | 3.2 | 0.00 | 0.00 | 0.00 | 99 | 1008.7 |
| 20260505091142 | 10 | 113 | 0.0 | 0.0 | 0.00 | 0.00 | 0.00 | 99 | 1008.8 |
| 20260505090121 | 10 | 180 | 0.0 | 0.0 | 0.00 | 0.00 | 0.00 | 99 | 1008.8 |
| 20260505085121 | 10 | 243 | 1.6 | 3.2 | 0.00 | 0.00 | 0.00 | 99 | 1008.7 |
| 20260505084121 | 10 | 153 | 1.6 | 3.2 | 0.00 | 0.00 | 0.00 | 99 | 1008.6 |
| 20260505083121 | 11 | 176 | 0.0 | 4.8 | 0.00 | 0.00 | 0.00 | 99 | 1008.7 |
| 20260505082121 | 11 | 209 | 0.0 | 3.2 | 0.00 | 0.00 | 0.00 | 99 | 1008.7 |
| 20260505081121 | 11 | 223 | 1.6 | 4.8 | 0.00 | 0.00 | 0.00 | 99 | 1008.7 |
| 20260505080142 | 11 | 247 | 0.0 | 3.2 | 0.00 | 0.00 | 0.00 | 99 | 1008.7 |
| 20260505075121 | 11 | 242 | 1.6 | 3.2 | 0.00 | 0.00 | 0.00 | 99 | 1008.6 |
| 20260505074121 | 11 | 214 | 1.6 | 4.8 | 0.00 | 0.00 | 0.00 | 99 | 1008.6 |
| 20260505073121 | 11 | 227 | 3.2 | 4.8 | 0.00 | 0.00 | 0.00 | 99 | 1008.6 |
| 20260505072122 | 11 | 209 | 3.2 | 4.8 | 0.00 | 0.00 | 0.00 | 99 | 1008.6 |
| 20260505071123 | 11 | 172 | 3.2 | 6.4 | 0.00 | 0.00 | 0.00 | 99 | 1008.6 |
| 20260505070122 | 11 | 182 | 3.2 | 9.7 | 0.00 | 0.00 | 0.00 | 99 | 1008.6 |
| 20260505065122 | 11 | 253 | 3.2 | 8.0 | 0.00 | 0.00 | 0.00 | 99 | 1008.6 |
| 20260505064122 | 11 | 202 | 3.2 | 6.4 | 0.00 | 0.00 | 0.00 | 99 | 1008.6 |
| 20260505063123 | 11 | 202 | 1.6 | 4.8 | 0.00 | 0.00 | 0.00 | 99 | 1008.8 |
| 20260505062122 | 11 | 215 | 3.2 | 4.8 | 0.00 | 0.00 | 0.00 | 99 | 1008.8 |
| 20260505061122 | 11 | 202 | 3.2 | 6.4 | 0.00 | 0.00 | 0.00 | 99 | 1008.9 |
| 20260505060123 | 11 | 149 | 1.6 | 4.8 | 0.00 | 0.00 | 0.00 | 99 | 1008.9 |
| 20260505055143 | 11 | 178 | 1.6 | 6.4 | 0.00 | 0.00 | 0.00 | 99 | 1008.9 |
| 20260505054122 | 12 | 198 | 3.2 | 6.4 | 0.00 | 0.00 | 0.00 | 99 | 1009.0 |
| 20260505053122 | 12 | 225 | 3.2 | 4.8 | 0.00 | 0.00 | 0.00 | 99 | 1009.1 |
| 20260505052122 | 12 | 215 | 1.6 | 4.8 | 0.00 | 0.00 | 0.00 | 99 | 1009.1 |
| 20260505051121 | 12 | 190 | 1.6 | 4.8 | 0.00 | 0.00 | 0.00 | 98 | 1009.2 |
| 20260505050123 | 12 | 215 | 1.6 | 4.8 | 0.00 | 0.00 | 0.00 | 97 | 1009.2 |
| 20260505041121 | 13 | 237 | 1.6 | 4.8 | 0.00 | 0.00 | 0.00 | 87 | 1009.4 |
| 20260505040121 | 13 | 244 | 3.2 | 4.8 | 0.00 | 0.00 | 0.00 | 86 | 1009.4 |
| 20260505035142 | 13 | 244 | 3.2 | 9.7 | 0.00 | 0.00 | 0.00 | 85 | 1009.4 |